User: anonymous   Login
Location: Unspecified
(0.0000°N, 0.0000°E)
Time: 06:26:09
(UTC+00:00)
Language:

PAYLOAD D - Orbit

View from above orbital plane
View from above orbital plane
View from above satellite
View from above satellite

Ground track
Ground track

The orbit data is extracted from the following two-line orbital elements,

1 27058U 01058D   17234.70513029  .00000012  00000-0  86615-5 0  9994
2 27058  82.5339 107.8413 0004196  86.4882 273.6690 12.62017210721054
Epoch (UTC): 22 August 2017 16:55:23
Eccentricity: 0.0004196
inclination: 82.5339°
perigee height: 1411 km
apogee height: 1418 km
right ascension of ascending node: 107.8413°
argument of perigee: 86.4882°
revolutions per day: 12.62017210
mean anomaly at epoch: 273.6690°
orbit number at epoch: 72105

The dashed part of the orbit path shows where the satellite is in the earth's shadow,  

DLR